Regional Weather Roundup
Issued by NWS Charleston, SC

Current Version | Previous Version | Graphics & Text | Print | Product List | Glossary On
Versions: 1 2 3 4 5 6 7 8 9 10 11 12 13 14 15 16 17 18 19 20 21 22 23 24 25 26 27 28 29 30 31 32 33 34 35 36 37 38 39 40 41 42 43 44 45 46 47 48 49 50
000
ASUS42 KCHS 300226
RWRCHS

REGIONAL WEATHER ROUNDUP
NATIONAL WEATHER SERVICE CHARLESTON SC
900 PM EST THU JAN 29 2015

NOTE: "FAIR" INDICATES FEW OR NO CLOUDS BELOW 12,000 FEET WITH NO
SIGNIFICANT WEATHER AND/OR OBSTRUCTIONS TO VISIBILITY.

NOT ALL STATIONS ARE QUALITY CONTROLLED BY THE NATIONAL
WEATHER SERVICE. USE DATA WITH CAUTION...ESPECIALLY
DEWPOINT OBSERVATIONS.

SCZ027-030-031-034>040-042>050-300300-
...SOUTHEAST SOUTH CAROLINA...

CITY           SKY/WX    TMP DP  RH WIND       PRES   REMARKS
N CHARLESTON   CLOUDY    49  41  74 S6        30.17F
WATERFRONT PRK NOT AVBL
MOUNT PLEASANT FAIR      48  43  81 S5        30.17F
PINOPOLIS        N/A     52  41  66 VRB3      30.07S
MONCKS CORNER  MOCLDY    52  41  66 S8        30.15F
SUMMERVILLE    FAIR      50  41  71 S3        30.18S
BEAUFORT MCAS  CLOUDY    50  45  83 S8        30.17F
BEAUFORT ARPT  FAIR      50  46  87 S3        30.17F
HILTON HEAD IS CLOUDY    52  46  82 S6        30.19F
WALTERBORO     CLOUDY    52  41  66 SW7       30.17S
ALLENDALE      LGT RAIN  52  39  62 CALM      30.16R

...SOUTHERN MIDLANDS AND PEE DEE...

CITY           SKY/WX    TMP DP  RH WIND       PRES   REMARKS
GEORGETOWN     NOT AVBL
KINGSTREE      NOT AVBL
ORANGEBURG     CLOUDY    49  34  56 CALM      30.16R
BARNWELL       FAIR      52  36  54 SW5       30.16R
AIKEN          LGT RAIN  48  32  53 SW5       30.18R
MANNING        MOCLDY    52  18  25 SW3       30.15S
COLUMBIA       CLOUDY    49  31  49 CALM      30.14R
SUMTER         DRIZZLE   46  32  57 S5        30.13R
FLORENCE       MOCLDY    46  31  55 S7        30.12F
MYRTLE BEACH   CLEAR     52  37  58 S12       30.18F
N MYRTLE BEACH CLOUDY    51  41  68 S10       30.15F

$$

GAZ063-065-086>088-099>101-113>116-118-119-134>141-150-300300-
...SOUTHEAST GEORGIA...

CITY           SKY/WX    TMP DP  RH WIND       PRES   REMARKS
SAVANNAH ARPT  CLOUDY    50  43  77 S8        30.19S
HUNTER AAF     CLOUDY    51  45  81 S6        30.16F
FORT STEWART   MOCLDY    52  45  76 S5        30.17F
STATESBORO     CLOUDY    52  41  65 SW3       30.17R
SYLVANIA       MOCLDY    51  40  64 CALM      30.17R
CLAXTON        FAIR      45  41  87 CALM      30.17S

...CSRA...CENTRAL AND FAR SOUTHEAST GEORGIA...

CITY           SKY/WX    TMP DP  RH WIND       PRES   REMARKS
THOMSON        MOCLDY    50  33  51 CALM      30.19S
AUGUSTA-BUSH   CLOUDY    47  31  53 CALM      30.16R
AUGUSTA-DANIEL MOCLDY    53  28  38 SW5       30.15S
SWAINSBORO     FAIR      52  23  32 CALM      30.18R
VIDALIA        CLOUDY    50  36  57 SW6       30.17S
EASTMAN        MOCLDY    53  36  51 CALM      30.19S
HAZLEHURST     FAIR      51  38  60 SW3       30.17S
ALMA           PTCLDY    52  38  58 SW6       30.18F
WAYCROSS       PTCLDY    55  44  65 SW8       30.18F
JESUP          FAIR      52  46  82 CALM      30.18F
BAXLEY         FAIR      52  41  66 CALM      30.17S
BRUNSWICK      MOCLDY    54  46  76 S8        30.19F
SAINT SIMONS   MOCLDY    53  49  86 S6        30.20F

$$

SCZ027-028-034-036>038-045-046-048>050-GAZ119-141-300300-
...LAKE AND SUPPLEMENTAL COASTAL OBSERVATIONS...

STATION/POSITION TIME  TEMP    WIND        PRES    WAVE   SWELL
                       AIR SEA DIR/SP/G            HT/PER HT/PER/DIR
                 (UTC) (F)     (DEG/KT/KT) (MB)    (FT/S) (FT/S/D)
UPR LAKE MARION  NOT AVBL
WINYAH BAY       0100   46     210/  3     1020.0
LAKE MURRAY      0100   51     200/  4/  4 1019.6F
ACE BASIN NERRS  NOT AVBL
FORT PULASKI     0200   51 52  190/  3/  6 1022.4F
SAPELO ISLAND    0200   50     180/  5     1022.0F

$$

ANZ835-935-AMZ111-154-330-350-352-354-370-450-454-472-300300-
...C-MAN AND BUOY OBSERVATIONS...

STATION/POSITION TIME  TEMP    WIND        PRES    WAVE   SWELL
                       AIR SEA DIR/SP/G            HT/PER HT/PER/DIR
                 (UTC) (F)     (DEG/KT/KT) (MB)    (FT/S) (FT/S/D)
BUOY 41004       0150   62 68  210/ 16/ 17 1021.9F   3/ 9   2/ 9
BUOY 41008       0150   55 54  180/ 10/ 12 1022.4F   3/10   2/ 80/10
FOLLY BEACH CMAN 0200   52     170/ 11/ 12 1021.8F
CAPERS NEARSHORE 0100   51     200/  6/  6   N/A
FRIPP NEARSHORE  0100   53     200/  8/ 10 1021.8S


STATION/POSITION TIME  TEMP    WIND        PRES    WAVE   SWELL
                       AIR SEA DIR/SP/G            HT/PER HT/PER/DIR
                 (UTC) (F)     (DEG/KT/KT) (MB)    (FT/S) (FT/S/D)
5E ST. MARYS GA  0121      57                N/A     3/11   2/100/11
FRYING PAN BUOY  0150   60 67  220/ 19/ 23 1021.8F   3/ 3   2/ 80/ 9
BUOY 41025       0150   53 71  220/ 16/ 19 1020.7F   4/ 8   3/ 50/ 8
CAPE LOOKOUT NC  0200   51     210/  7/  9 1021.2S
BUOY 41002       0150   58 72  250/  4/ 10 1024.4F   6/10   5/ 30/10
BUOY 41010       0120   65 75  170/  4/  6 1024.8
ST AUGUSTINE FL  0200   58     170/  4/  5 1024.3F


$$


USA.gov is the U.S. government's official web portal to all federal, state and local government web resources and services.